Location: Taukkyan
(23.1052°N, 94.0030°E)
Time: 11:41:51
(UTC+00:00)

OAO 3 Copernicus - Pass Details

Date: 06 July 2020
Orbit: 695 x 704 km, 35.0° (Epoch: 15 August)

Event Time Altitude Azimuth Distance (km) Brightness Sun altitude
Exits shadow 21:10:50 33° 300° (WNW) 1,146 5.2 -23.0°
Maximum altitude 21:13:05 88° 30° (NNE) 696 4.2 -22.6°
Drops below altitude 10° 21:18:06 10° 118° (ESE) 2,137 7.1 -21.7°
Sets 21:20:30 0° 119° (ESE) 3,053 7.9 -21.2°
